Tracking 25709 objects as of 24-May-2022
HD Live streaming from Space Station
objects crossing your sky now

ONEWEB-0324

Track ONEWEB-0324 now!
10-day predictions
ONEWEB-0324 is classified as:


NORAD ID: 49193
Int'l Code: 2021-083H
Perigee: 1,195.1 km
Apogee: 1,198.8 km
Inclination: 87.9 °
Period: 109.2 minutes
Semi major axis: 7567 km
RCS: Unknown
Launch date: September 14, 2021
Source: United Kingdom (UK)
Launch site: TYURATAM MISSILE AND SPACE COMPLEX (TTMTR)
aabbcc
Your satellite tracking list
Your tracking list is empty




NASA's NSSDC Master Catalog

Two Line Element Set (TLE):
1 49193U 21083H   22144.25002315  .00046560  00000-0  11750+0 0  9995
2 49193  87.9106 270.5232 0002437 109.0160 321.7208 13.18665614 35577
Source of the keplerian elements: AFSPC